Home > Weather > Alsdorf > Past weeks

Flag for Germany Weather for the Past 2 Weeks in Alsdorf, North Rhine-Westphalia, Germany

Now
36 °F

Partly cloudy.


Feels Like: 32 °F
Forecast: 32 / 42 °F
Wind: 5 mph from South

Location: Geilenkirchen Airport

Current Time: Feb 12, 2016 at 3:14:57 AM

Latest Report: Feb 12, 2016 at 1:50 AM


Visibility: N/A

Pressure: 29.65 "Hg

Humidity: 93%

Dew point: 34 °F

Location of AlsdorfLocation

Historic Weather in Alsdorf — Graph

°F

Alsdorf Temperature Yesterday

Maximum temperature yesterday: 45 °F (at 1:50 PM)
Minimum temperature yesterday: 37 °F (at 7:50 AM)
Average temperature yesterday: 41 °F

High & Low Weather Summary for the Past Weeks

 TemperatureHumidityPressure
High54 °F (Jan 31, 10:50 PM)100% (Jan 31, 8:50 PM)30.33 "Hg (Jan 31, 8:50 PM)
Low36 °F (Feb 12, 12:50 AM)57% (Jan 28, 2:50 PM)28.82 "Hg (Feb 9, 2:50 PM)
Average44 °F84%29.89 "Hg
* Reported Jan 28 1:50 AM — Feb 12 1:50 AM, Alsdorf, Weather by CustomWeather, © 2016

Note: Actual official high and low records may vary slightly from our data, if they occured in-between our weather recording intervals... More about our weather records

Advertising

Alsdorf Weather History for the Previous 24 Hours

 ConditionsComfort  
Time TempWeatherWind HumidityBarometerVisibility
1:50 AM
Fri, Feb 12
36 °FPartly cloudy.5 mph93%29.65 "HgN/A
12:50 AM36 °FSprinkles. Partly cloudy.7 mph93%29.65 "HgN/A
11:50 PM
Thu, Feb 11
39 °FPartly cloudy.7 mph87%29.65 "HgN/A
9:50 PM39 °FPartly cloudy.7 mph87%29.68 "HgN/A
8:50 PM39 °FPassing clouds.2 mph87%29.68 "HgN/A
7:50 PM39 °FPartly cloudy.6 mph87%29.68 "HgN/A
6:50 PM41 °FPassing clouds.5 mph81%29.68 "HgN/A
5:50 PM43 °FPartly cloudy.3 mph81%29.68 "HgN/A
4:50 PM43 °FPartly sunny.9 mph76%29.68 "HgN/A
3:50 PM45 °FPartly sunny.10 mph66%29.68 "HgN/A
2:50 PM45 °FBroken clouds.14 mph66%29.68 "HgN/A
1:50 PM45 °FPartly sunny.14 mph66%29.68 "HgN/A
12:50 PM43 °FPartly sunny.16 mph71%29.68 "HgN/A
11:50 AM43 °FScattered clouds.14 mph76%29.71 "HgN/A
10:50 AM41 °FScattered clouds.10 mph87%29.68 "HgN/A
9:50 AM41 °FPassing clouds.7 mph81%29.68 "HgN/A
8:50 AM37 °FScattered clouds.7 mph93%29.68 "Hg5 mi
7:50 AM37 °FPassing clouds.9 mph93%29.65 "Hg4 mi
6:50 AM39 °FPassing clouds.12 mph87%29.65 "Hg6 mi
5:50 AM39 °FPassing clouds.10 mph93%29.65 "Hg5 mi
4:50 AM39 °FPassing clouds.8 mph93%29.62 "Hg5 mi
3:50 AM39 °FPassing clouds.5 mph93%29.62 "Hg5 mi
Weather by CustomWeather, © 2016

See weather overviewHow to use our weather pages